CW5841 Weather Reports


time (UTC)temp
F
wind
direction
speed
knots
gust
knots
rain 1hr
in
rain 24hr
in
rain mn
in
humidity
%
barometer
mb
20260506030604 43 305 1.7 6.1 0.00 0.00 0.00 82 1014.5
20260506030105 44 297 0.9 5.2 0.00 0.00 0.00 79 1014.6
20260506020103 44 189 1.7 6.1 0.00 0.00 0.00 80 1014.5
20260506013604 44 341 1.7 4.3 0.00 0.00 0.00 80 1014.6
20260506013103 44 341 1.7 5.2 0.00 0.00 0.00 78 1014.7
20260506010604 44 355 2.6 6.1 0.00 0.00 0.00 77 1014.8
20260506010103 44 336 0.9 5.2 0.00 0.00 0.00 78 1014.8
20260506003604 44 324 0.9 4.3 0.00 0.00 0.00 81 1014.8
20260505233604 45 32 0.9 4.3 0.00 0.00 0.00 83 1014.8
20260505233104 45 334 4.3 7.8 0.00 0.00 0.00 80 1014.8
20260505230603 45 35 0.9 4.3 0.00 0.00 0.00 85 1014.8
20260505230104 45 57 1.7 7.0 0.00 0.00 0.00 82 1015.0
20260505223605 45 330 2.6 6.1 0.00 0.00 0.00 83 1015.2
20260505223105 46 61 1.7 7.8 0.00 0.00 0.00 81 1015.2
20260505220604 46 20 2.6 7.8 0.00 0.00 0.00 82 1015.1
20260505203605 47 39 0.9 4.3 0.00 0.00 0.00 87 1014.7
20260505203104 48 38 1.7 6.1 0.00 0.00 0.00 86 1014.7
20260505200604 48 29 2.6 7.8 0.00 0.00 0.00 84 1014.5
20260505200104 49 3 1.7 7.8 0.00 0.00 0.00 84 1014.5
20260505193104 49 312 0.9 4.3 0.00 0.00 0.00 85 1014.1
20260505190603 50 5 0.0 2.6 0.00 0.00 0.00 88 1013.9
20260505183104 51 339 1.7 6.1 0.00 0.00 0.00 84 1013.9
20260505180605 52 20 0.0 0.0 0.00 0.00 0.00 82 1013.9
20260505180103 52 20 0.0 1.7 0.00 0.00 0.00 81 1013.9
20260505173603 53 20 0.0 1.7 0.00 0.00 0.00 79 1013.9
20260505170604 54 20 0.0 1.7 0.00 0.00 0.00 75 1013.9
20260505160604 54 20 0.9 2.6 0.00 0.00 0.00 74 1013.9
20260505153103 54 20 0.0 5.2 0.00 0.00 0.00 72 1013.9
20260505150104 54 20 1.7 4.3 0.00 0.00 0.00 70 1013.9
20260505140104 53 20 0.9 5.2 0.00 0.00 0.00 73 1014.1
20260505123603 53 17 0.9 2.6 0.00 0.00 0.00 72 1014.1
20260505120605 54 14 0.9 1.7 0.00 0.00 0.00 66 1014.0
20260505120103 55 14 1.7 7.0 0.00 0.00 0.00 63 1014.1
20260505113604 55 33 1.7 7.0 0.00 0.00 0.00 64 1014.1
20260505113105 55 32 1.7 7.0 0.00 0.00 0.00 66 1014.3
20260505100604 53 15 3.5 7.0 0.00 0.00 0.00 67 1014.4
20260505093604 52 293 1.7 4.3 0.00 0.00 0.00 73 1014.5
20260505090603 50 338 1.7 5.2 0.00 0.00 0.00 73 1014.4
20260505083604 49 42 1.7 6.1 0.00 0.00 0.00 85 1014.7
20260505083105 49 42 1.7 6.1 0.00 0.00 0.00 81 1014.8
20260505073105 46 333 1.7 4.3 0.00 0.00 0.00 100 1014.4
20260505070603 45 77 0.9 4.3 0.00 0.00 0.00 100 1014.6
20260505063604 43 316 0.0 0.9 0.00 0.00 0.00 100 1014.7
20260505063104 43 314 0.0 2.6 0.00 0.00 0.00 100 1014.7
20260505050604 37 21 0.0 0.0 0.00 0.00 0.00 100 1014.8
20260505050103 37 21 0.0 0.0 0.00 0.00 0.00 100 1014.8
20260505033604 38 21 0.0 0.0 0.00 0.00 0.00 100 1014.4
20260505033104 38 21 0.0 0.0 0.00 0.00 0.00 100 1014.4